Regional Weather Roundup
Issued by NWS

Home | Current Version | Previous Version | Graphics & Text | Print | Product List | Glossary On
Versions: 1 2 3 4 5 6 7 8 9 10 11 12 13 14 15 16 17 18 19 20 21 22 23 24 25 26 27 28 29 30 31 32 33 34 35 36 37 38 39 40 41 42 43 44 45 46 47 48 49 50
000
ASUS43 KTOP 190408
RWRKS

WEATHER ROUNDUP FOR KANSAS
NATIONAL WEATHER SERVICE GOODLAND KS
1000 PM CST WED JAN 18 2017

NOTE:  "FAIR" INDICATES FEW OR NO CLOUDS BELOW 12,000 FEET WITH NO
SIGNIFICANT WEATHER AND/OR OBSTRUCTIONS TO VISIBILITY.

KSZ001>006-013>018-027>032-041>047-190500-
NORTHWEST KANSAS

CITY           SKY/WX    TMP DP  RH WIND       PRES   REMARKS
GOODLAND       CLOUDY    35  30  82 S8        29.74F
HAYS           CLEAR     40  39  97 SE8       29.82
HILL CITY      CLOUDY    41  39  93 SE7       29.80F
RUSSELL        CLEAR     42  38  85 S16       29.81F
$$

KSZ061>065-074>080-084>089-190500-
SOUTHWEST KANSAS

CITY           SKY/WX    TMP DP  RH WIND       PRES   REMARKS
DODGE CITY     CLOUDY    43  42  97 S17       29.81F
ELKHART          N/A     35  26  69 S9          N/A
GARDEN CITY    CLEAR     41  39  93 S12       29.77S
GREAT BEND     CLEAR     40  38  93 SE12      29.84F WCI  33
LIBERAL        CLEAR     43  37  81 S14       29.77F
PRATT          CLOUDY    43  41  93 S13G18    29.87S
$$

KSZ066>073-081>083-090>101-190500-
SOUTHEAST KANSAS

CITY           SKY/WX    TMP DP  RH WIND       PRES   REMARKS
CHANUTE        CLOUDY    47  42  83 SE9       29.95F
COFFEYVILLE    CLOUDY    48  45  89 SE5       29.96F
HUTCHINSON     CLEAR     38  35  89 SE8       29.89F
MEDICINE LODGE   N/A     45  42  89 S8        29.88S
NEWTON         CLOUDY    43  38  82 S8        29.90F
PARSONS        CLOUDY    47  43  86 SE5       29.96F
WICHITA INTL   CLOUDY    46  39  76 S9        29.91F
WICHITA JABRA  CLOUDY    46  39  76 S7        29.91F
WICHITA MCCONL CLOUDY    46  38  75 S8        29.90F
WINFIELD       CLOUDY    47  40  76 SE5       29.93F
$$

KSZ007>012-019>026-033>040-048>060-102>105-190500-
NORTHEAST KANSAS

CITY           SKY/WX    TMP DP  RH WIND       PRES   REMARKS
CONCORDIA      CLOUDY    41  38  89 SE9       29.87S
EMPORIA        CLOUDY    42  38  85 S10       29.92F
LAWRENCE       CLEAR     32  32 100 CALM      29.96F FOG
MANHATTAN      CLOUDY    43  34  70 CALM      29.92S
MARYSVILLE     CLEAR     37  32  81 S7        29.90F
OLATHE IND     CLOUDY    41  39  93 SE6       29.96S
OLATHE EXE     CLOUDY    41  40  96 SE5       29.96S
SALINA         CLEAR     45  37  73 S13       29.89S
TOPEKA BILLARD PTCLDY    37  33  85 E3        29.95S
TOPEKA FORBES  CLEAR     37  35  92 SE5       29.94F
$$



USA.gov is the U.S. government's official web portal to all federal, state and local government web resources and services.